Location: Hermaringen
(48.5952°N, 10.2585°E)
Time: 20:57:11
(UTC+00:00)

S-56A Canister/Altair - Pass Details

Date: 20 February 2026
Orbit: 633 x 2484 km, 38.9° (Epoch: 13 March)

Event Time Altitude Azimuth Distance (km) Brightness Sun altitude
Exits shadow 03:46:52 25° 210° (SSW) 2,938 10.1 -25.6°
Maximum altitude 03:47:21 25° 206° (SSW) 2,966 10.1 -25.5°
Drops below altitude 10° 03:56:21 10° 159° (SSE) 4,586 11.6 -24.0°
Sets 04:01:21 0° 148° (SSE) 5,836 12.3 -23.2°
